Temp
60 59 58 57 57 58 58 58 57 58 57 56 58 56 57 57 57 57 56 56 57 57 57 57 58 58 60 58 58 59 58 57 56 56 56 56 55 57 58 56 55 57
59 59 59 58 58 57 57 58 58 58 57 56 58 57 56 56 58 57 56 56 56 55 56 57 57 57 57 58 57 58 57 56 56 57 56 55 54 56 56 56 56 54
58 58 58 58 58 56 56 56 57 57 57 57 57 57 58 57 55 55 55 55 55 55 56 56 56 56 56 56 56 57 56 54 54 54 55 54 53 55 53 54 53 54
58 59 58 57 57 56 56 57 56 57 57 58 57 57 57 57 55 55 56 57 54 54 54 55 55 55 56 55 56 55 54 53 53 53 54 53 53 54 54 54 53 53
59 58 58 57 57 57 57 58 57 56 56 56 55 55 57 55 54 54 54 53 54 53 54 54 54 54 54 55 55 54 54 53 53 53 55 53 52 54 54 55 52 52
58 59 59 58 57 58 57 57 57 56 55 55 55 55 54 54 54 54 53 53 53 54 53 53 53 54 54 54 54 53 53 55 53 54 55 54 52 53 56 53 54 54
60 60 59 58 57 58 58 57 56 56 55 54 54 54 53 54 54 53 52 53 53 54 53 53 53 53 54 53 53 53 52 53 52 54 55 52 53 53 52 53 54 54
59 58 58 58 58 57 57 56 56 55 54 54 54 54 54 53 53 53 52 53 53 53 53 52 53 52 52 53 54 53 52 54 54 53 53 51 52 52 51 54 52 54
59 58 58 58 58 57 57 57 56 55 55 55 54 54 54 54 53 52 52 51 52 52 52 52 52 52 52 52 52 53 52 51 52 52 52 52 52 51 52 51 52 52
58 57 58 58 58 57 57 55 55 55 55 55 54 53 54 54 52 52 52 51 52 52 52 52 52 52 51 51 52 51 52 52 50 50 51 51 52 51 51 52 51 52
57 57 56 57 56 56 56 55 55 55 55 54 52 53 53 53 54 52 52 52 53 52 52 52 51 51 51 51 52 51 51 51 51 50 51 51 51 51 55 51 52 53
56 57 57 57 57 57 56 55 55 54 54 54 53 53 52 53 54 53 53 53 52 51 52 52 51 51 51 51 51 51 51 51 51 51 51 51 51 51 52 50 52 51
56 57 56 57 58 57 56 55 55 54 54 54 54 53 53 53 53 53 53 53 52 52 52 52 52 52 51 51 51 51 51 52 52 51 52 51 51 52 51 51 51 52
56 57 57 56 55 55 55 55 56 55 54 53 54 54 53 52 53 54 53 53 52 52 52 53 53 53 52 51 52 51 52 52 51 51 52 51 52 52 51 51 51 52
56 56 55 55 55 55 56 56 56 54 54 54 55 55 55 54 53 54 53 53 53 53 53 53 53 54 54 52 52 52 52 52 51 52 52 52 52 52 52 51 51 51
56 56 55 55 55 55 55 55 55 54 54 55 56 54 54 54 52 53 53 53 54 53 52 53 54 54 56 54 54 54 51 54 53 52 52 52 53 52 52 51 51 51
55 55 56 55 55 55 55 56 56 55 54 54 53 53 53 53 54 54 53 52 53 53 53 54 55 56 53 48 48 51 54 52 53 52 50 51 51 52 53 54 52 51
54 55 54 54 55 54 54 54 54 55 55 55 55 54 53 53 53 51 51 52 52 52 51 53 54 54 50 47 46 47 51 56 54 54 53 51 51 51 53 52 53 53
55 54 53 53 52 52 52 52 52 52 52 53 54 54 53 54 52 52 51 50 50 52 52 50 50 49 45 45 45 45 45 50 54 54 55 53 52 53 53 53 53 54
52 52 52 52 51 51 50 50 50 50 49 49 51 52 52 52 52 51 51 51 50 51 52 50 50 46 42 42 44 44 43 45 52 53 54 54 54 54 54 54 54 54
51 50 50 51 51 50 49 48 48 49 49 48 48 49 49 49 50 50 50 50 50 49 50 51 51 45 40 39 41 44 44 44 48 51 52 52 53 53 54 54 54 55
50 49 49 49 49 49 48 48 47 47 47 47 47 46 47 47 48 48 48 49 49 49 47 50 51 46 42 40 40 41 43 47 48 49 51 52 52 52 53 53 53 53
48 48 47 46 46 46 45 45 46 46 46 46 46 45 45 45 45 45 46 46 48 48 49 49 50 48 44 43 41 40 44 47 47 48 48 50 52 52 52 53 53 53
47 47 47 46 45 45 46 46 46 46 46 45 44 44 45 44 44 44 44 45 45 46 47 47 48 48 45 44 43 42 43 49 50 49 49 50 51 52 51 51 53 53
48 48 47 46 45 44 44 44 45 45 44 44 44 44 44 43 45 43 43 43 44 44 49 47 46 47 45 43 43 43 44 47 49 48 48 49 50 51 50 50 51 51
47 47 47 47 46 46 46 45 45 44 43 43 43 43 42 42 42 43 42 42 42 43 43 44 44 45 46 43 43 43 43 46 48 48 49 49 50 51 52 52 49 50
MSLP
1016.77 1017.01 1017.25 1017.49 1017.65 1017.77 1018.01 1018.21 1018.33 1018.37 1018.45 1018.45 1018.41 1018.61 1018.65 1018.77 1018.77 1018.69 1018.61 1018.57 1018.57 1018.57 1018.65 1018.65 1018.69 1018.81 1018.93 1018.97 1019.09 1019.21 1019.37 1019.49 1019.65 1019.81 1019.89 1020.05 1020.25 1020.33 1020.49 1020.61 1020.73 1020.81
1016.89 1017.05 1017.25 1017.49 1017.69 1017.81 1017.97 1018.05 1018.25 1018.29 1018.49 1018.57 1018.53 1018.61 1018.77 1018.85 1018.93 1018.81 1018.73 1018.73 1018.77 1018.77 1018.81 1018.81 1018.85 1018.89 1018.97 1019.09 1019.13 1019.21 1019.37 1019.45 1019.57 1019.81 1019.89 1020.05 1020.17 1020.25 1020.33 1020.45 1020.57 1020.77
1016.89 1017.09 1017.21 1017.33 1017.53 1017.77 1017.93 1018.13 1018.21 1018.37 1018.45 1018.65 1018.69 1018.69 1018.77 1018.89 1018.97 1019.05 1018.97 1018.93 1018.97 1019.05 1019.05 1019.01 1019.05 1019.05 1019.13 1019.21 1019.33 1019.41 1019.53 1019.65 1019.69 1019.93 1019.89 1019.97 1020.13 1020.21 1020.41 1020.49 1020.53 1020.61
1016.93 1016.97 1017.13 1017.41 1017.61 1017.81 1018.01 1018.13 1018.37 1018.49 1018.61 1018.73 1018.81 1018.85 1018.89 1019.01 1019.05 1019.05 1019.09 1019.13 1019.17 1019.29 1019.33 1019.25 1019.25 1019.29 1019.25 1019.37 1019.45 1019.61 1019.73 1019.85 1019.97 1019.97 1020.01 1020.25 1020.33 1020.29 1020.41 1020.45 1020.57 1020.69
1016.85 1017.09 1017.29 1017.53 1017.77 1017.93 1018.05 1018.17 1018.41 1018.57 1018.69 1018.85 1018.97 1019.01 1019.01 1019.09 1019.13 1019.17 1019.25 1019.37 1019.33 1019.41 1019.45 1019.45 1019.45 1019.45 1019.49 1019.53 1019.53 1019.69 1019.81 1019.93 1020.05 1020.01 1020.05 1020.25 1020.41 1020.41 1020.45 1020.45 1020.61 1020.77
1016.93 1017.05 1017.25 1017.45 1017.73 1017.89 1018.13 1018.29 1018.45 1018.61 1018.77 1018.89 1019.05 1019.17 1019.17 1019.21 1019.25 1019.29 1019.33 1019.41 1019.53 1019.53 1019.61 1019.61 1019.61 1019.65 1019.61 1019.57 1019.65 1019.77 1019.85 1019.97 1020.17 1020.09 1020.09 1020.29 1020.49 1020.57 1020.61 1020.77 1020.77 1020.81
1016.93 1017.09 1017.29 1017.53 1017.69 1017.85 1018.05 1018.29 1018.45 1018.65 1018.77 1018.93 1019.13 1019.21 1019.29 1019.33 1019.33 1019.41 1019.41 1019.49 1019.61 1019.61 1019.65 1019.69 1019.73 1019.77 1019.81 1019.73 1019.73 1019.85 1019.97 1020.01 1020.17 1020.13 1020.17 1020.45 1020.53 1020.73 1020.85 1020.81 1020.65 1020.69
1016.93 1017.17 1017.33 1017.45 1017.61 1017.89 1018.01 1018.25 1018.41 1018.61 1018.77 1018.93 1019.01 1019.33 1019.41 1019.37 1019.53 1019.61 1019.61 1019.61 1019.65 1019.77 1019.81 1019.85 1019.89 1019.93 1020.01 1019.89 1019.89 1020.01 1020.09 1020.13 1020.21 1020.25 1020.33 1020.45 1020.49 1020.57 1020.69 1020.69 1020.73 1020.69
1016.77 1017.09 1017.29 1017.45 1017.61 1017.89 1018.05 1018.21 1018.41 1018.65 1018.81 1018.85 1019.05 1019.25 1019.49 1019.53 1019.53 1019.69 1019.77 1019.77 1019.85 1019.93 1019.97 1020.01 1020.05 1020.09 1020.21 1020.09 1020.09 1020.09 1020.21 1020.33 1020.37 1020.37 1020.41 1020.53 1020.53 1020.65 1020.73 1020.73 1020.73 1020.81
1017.29 1017.37 1017.37 1017.53 1017.69 1017.93 1018.05 1018.25 1018.45 1018.65 1018.81 1018.89 1019.05 1019.25 1019.33 1019.61 1019.73 1019.77 1019.81 1019.89 1019.97 1020.09 1020.13 1020.09 1020.17 1020.25 1020.29 1020.29 1020.25 1020.25 1020.33 1020.41 1020.53 1020.53 1020.57 1020.57 1020.61 1020.73 1020.81 1020.81 1020.81 1020.93
1017.85 1017.81 1017.85 1017.77 1017.97 1018.09 1018.21 1018.37 1018.49 1018.69 1018.89 1018.97 1019.13 1019.29 1019.45 1019.53 1019.65 1019.89 1019.89 1019.97 1020.01 1020.09 1020.17 1020.21 1020.25 1020.29 1020.29 1020.37 1020.45 1020.41 1020.41 1020.45 1020.53 1020.65 1020.73 1020.77 1020.81 1020.81 1020.89 1020.89 1020.97 1020.93
1018.17 1018.25 1018.09 1018.05 1017.93 1018.05 1018.21 1018.41 1018.57 1018.77 1018.97 1019.17 1019.21 1019.33 1019.49 1019.53 1019.57 1019.69 1019.85 1019.93 1020.13 1020.21 1020.21 1020.25 1020.37 1020.41 1020.37 1020.41 1020.49 1020.57 1020.57 1020.57 1020.61 1020.65 1020.69 1020.81 1020.89 1020.93 1020.93 1021.01 1020.93 1021.05
1017.93 1018.21 1018.09 1018.01 1017.89 1018.09 1018.29 1018.53 1018.65 1018.89 1019.05 1019.21 1019.29 1019.37 1019.45 1019.57 1019.61 1019.69 1019.81 1019.93 1020.05 1020.21 1020.29 1020.25 1020.37 1020.49 1020.45 1020.49 1020.53 1020.61 1020.61 1020.61 1020.69 1020.73 1020.77 1020.81 1020.89 1020.89 1020.93 1020.97 1020.97 1021.01
1018.37 1018.49 1018.49 1018.29 1018.25 1018.33 1018.41 1018.61 1018.81 1019.01 1019.17 1019.33 1019.41 1019.41 1019.57 1019.61 1019.69 1019.69 1019.77 1019.93 1020.05 1020.09 1020.21 1020.37 1020.45 1020.49 1020.57 1020.53 1020.53 1020.57 1020.65 1020.69 1020.73 1020.73 1020.81 1020.89 1020.89 1020.93 1021.01 1021.01 1021.01 1020.97
1018.69 1018.69 1018.69 1018.61 1018.61 1018.69 1018.69 1018.81 1018.97 1019.09 1019.21 1019.33 1019.41 1019.45 1019.49 1019.73 1019.77 1019.81 1019.89 1019.93 1020.09 1020.13 1020.17 1020.33 1020.45 1020.49 1020.53 1020.57 1020.61 1020.73 1020.81 1020.81 1020.85 1020.85 1020.89 1020.93 1020.97 1021.01 1021.09 1021.13 1021.13 1021.09
1018.49 1018.69 1018.73 1018.57 1018.73 1018.85 1018.89 1018.81 1019.05 1019.21 1019.25 1019.41 1019.45 1019.45 1019.49 1019.65 1019.73 1019.85 1019.93 1020.09 1020.09 1020.09 1020.25 1020.37 1020.41 1020.49 1020.49 1020.45 1020.57 1020.61 1020.85 1020.93 1021.05 1021.05 1021.13 1021.13 1021.09 1021.13 1021.17 1021.25 1021.25 1021.25
1018.77 1018.89 1018.93 1019.05 1019.17 1019.17 1018.97 1018.89 1019.01 1019.33 1019.49 1019.57 1019.61 1019.65 1019.61 1019.73 1019.81 1019.73 1019.81 1020.01 1020.25 1020.21 1020.17 1020.33 1020.41 1020.41 1020.37 1020.49 1020.45 1020.53 1020.69 1020.85 1020.93 1021.05 1021.17 1021.21 1021.21 1021.21 1021.17 1021.13 1021.17 1021.25
1019.21 1019.25 1019.45 1019.81 1019.69 1019.57 1019.61 1019.65 1019.61 1019.61 1019.73 1019.89 1019.97 1019.97 1020.01 1019.89 1019.89 1020.01 1019.97 1020.05 1020.13 1020.33 1020.45 1020.45 1020.41 1020.37 1020.49 1020.57 1020.61 1020.57 1020.57 1020.61 1020.73 1020.85 1021.05 1021.13 1021.17 1021.21 1021.21 1021.25 1021.21 1021.21
1019.69 1019.93 1020.17 1020.21 1020.29 1020.29 1020.25 1020.17 1020.21 1020.21 1020.37 1020.49 1020.57 1020.53 1020.21 1020.21 1020.33 1020.25 1020.25 1020.25 1020.25 1020.25 1020.33 1020.49 1020.61 1020.69 1020.81 1020.81 1020.81 1020.81 1020.81 1020.81 1020.77 1020.77 1020.85 1020.97 1021.09 1021.13 1021.13 1021.13 1021.13 1021.17
1020.61 1020.73 1020.77 1020.85 1020.85 1020.81 1020.73 1020.69 1020.77 1021.05 1021.21 1021.33 1021.25 1021.01 1020.85 1020.81 1020.77 1020.69 1020.65 1020.57 1020.53 1020.45 1020.41 1020.45 1020.53 1020.61 1020.73 1020.77 1020.81 1020.89 1021.09 1021.29 1021.09 1020.97 1020.89 1020.89 1020.97 1021.01 1021.01 1020.97 1020.97 1021.01
1021.29 1021.37 1021.53 1021.69 1021.73 1021.65 1021.45 1021.37 1021.41 1021.41 1021.41 1021.61 1021.57 1021.53 1021.41 1021.37 1021.37 1021.21 1021.21 1021.09 1020.97 1020.89 1020.81 1020.73 1020.65 1020.69 1020.65 1020.65 1020.65 1020.73 1020.89 1021.25 1021.29 1021.33 1021.21 1021.09 1020.93 1020.85 1020.81 1020.81 1020.81 1020.81
1021.81 1022.01 1022.13 1022.17 1022.33 1022.37 1022.21 1021.97 1021.85 1021.77 1021.73 1021.77 1021.73 1021.77 1021.81 1021.69 1021.57 1021.53 1021.41 1021.29 1021.21 1021.13 1021.05 1020.97 1020.97 1021.09 1021.17 1021.13 1021.09 1020.93 1020.97 1021.01 1021.05 1021.09 1021.05 1020.97 1020.89 1020.85 1020.77 1020.69 1020.73 1020.89
1022.41 1022.45 1022.45 1022.61 1022.65 1022.65 1022.69 1022.45 1022.21 1022.05 1022.01 1021.97 1021.81 1021.97 1021.97 1021.97 1022.05 1022.05 1022.01 1021.81 1021.57 1021.41 1021.29 1021.13 1021.01 1021.01 1021.21 1021.37 1021.45 1021.49 1021.33 1021.13 1021.13 1021.05 1020.97 1020.81 1020.65 1020.57 1020.57 1020.57 1020.65 1020.73
1022.77 1022.85 1022.89 1022.93 1022.85 1022.93 1022.93 1022.85 1022.73 1022.53 1022.41 1022.37 1022.33 1022.29 1022.21 1022.29 1022.33 1022.17 1022.17 1022.17 1022.05 1021.93 1021.85 1021.65 1021.45 1021.33 1021.41 1021.41 1021.49 1021.61 1021.77 1021.53 1021.21 1021.05 1020.81 1020.69 1020.49 1020.41 1020.45 1020.49 1020.45 1020.37
1023.01 1022.93 1023.01 1022.97 1023.13 1023.33 1023.45 1023.45 1023.29 1023.13 1023.05 1022.85 1022.73 1022.69 1022.65 1022.61 1022.53 1022.57 1022.61 1022.61 1022.65 1022.57 1022.29 1022.13 1022.05 1021.85 1021.69 1021.69 1021.65 1021.77 1021.77 1021.69 1021.57 1021.29 1021.01 1020.65 1020.45 1020.33 1020.33 1020.41 1020.37 1020.37
1023.61 1023.61 1023.53 1023.49 1023.45 1023.49 1023.53 1023.69 1023.73 1023.53 1023.49 1023.33 1023.13 1023.09 1023.05 1022.97 1022.93 1022.93 1022.93 1022.93 1022.97 1022.81 1022.73 1022.61 1022.37 1022.17 1022.05 1021.93 1021.85 1021.89 1022.01 1022.01 1021.89 1021.69 1021.37 1020.89 1020.61 1020.33 1019.97 1019.89 1020.09 1020.17
Wind_Speed
7 5 6 5 5 6 6 6 4 5 4 3 5 3 5 2 1 3 2 3 3 3 3 3 3 3 4 3 3 3 3 3 2 3 3 4 4 5 5 4 4 5
6 5 4 4 5 4 4 6 5 6 5 3 4 4 3 3 1 2 3 3 3 3 3 3 2 3 3 3 3 5 3 3 3 2 5 4 4 4 5 5 4 3
6 5 6 6 6 4 5 3 4 4 5 3 3 3 3 2 3 2 3 3 3 3 3 3 3 3 3 3 3 3 4 3 3 2 3 4 4 5 4 4 4 5
4 5 5 5 5 5 4 5 3 4 4 5 3 3 3 2 3 4 3 3 4 3 2 3 3 3 3 3 4 5 4 3 2 3 5 3 2 4 4 4 3 3
6 5 5 5 4 4 4 5 5 4 4 4 3 3 4 4 4 4 4 3 4 3 3 3 3 3 3 3 4 5 3 4 3 4 6 5 3 3 3 4 4 3
5 5 6 6 6 7 6 5 5 5 4 4 4 3 3 3 4 4 4 4 3 4 3 3 3 2 3 4 4 4 4 5 3 4 6 5 4 3 3 3 4 5
7 7 7 6 6 6 7 6 5 4 3 4 4 3 3 4 3 3 3 4 4 3 4 4 4 3 2 3 4 4 3 4 4 4 6 4 5 4 2 3 4 5
7 5 6 6 7 6 7 6 5 4 4 4 4 2 2 4 3 2 3 4 4 3 3 3 3 3 2 3 4 4 3 3 4 4 4 4 4 4 4 3 4 6
8 6 6 6 7 6 6 5 4 4 4 5 4 3 1 1 3 3 3 3 3 3 3 2 3 3 1 3 3 4 4 3 3 4 4 4 4 4 4 4 4 5
6 4 7 6 7 5 6 4 4 4 3 4 4 3 3 1 1 2 3 3 3 2 1 2 2 2 2 2 4 4 4 4 2 3 3 4 4 4 4 4 5 5
7 6 3 6 5 4 4 4 4 4 3 4 3 3 2 2 1 1 2 2 3 3 2 2 3 2 2 2 1 2 4 4 3 2 2 2 3 4 4 4 4 5
5 2 3 4 6 5 5 4 4 4 3 2 3 3 2 2 2 1 1 2 2 2 2 3 2 3 3 4 3 2 2 3 3 2 2 3 3 3 4 3 4 4
6 4 4 5 6 5 4 3 3 3 3 3 2 3 4 3 3 3 2 2 2 2 3 3 3 3 3 3 3 3 3 3 2 2 2 2 3 4 4 3 3 4
4 2 1 1 3 3 3 3 2 2 2 2 2 3 3 3 4 5 4 3 3 4 3 1 2 2 1 1 2 3 3 3 3 3 3 3 3 3 3 3 4 4
4 3 2 3 3 2 2 2 2 2 2 1 1 1 1 2 3 3 3 3 2 3 2 2 3 3 3 3 2 1 2 4 4 4 4 4 3 3 3 2 3 3
5 4 3 5 4 2 2 4 3 1 2 0 0 1 2 1 3 3 3 2 4 4 2 2 3 3 4 7 6 4 4 3 3 2 3 3 3 3 4 3 4 3
5 5 7 6 5 5 4 4 5 3 2 1 2 1 1 1 2 3 2 3 3 4 5 4 4 4 8 8 9 9 5 4 4 4 3 3 3 4 5 5 4 4
7 8 8 7 7 7 7 7 7 6 6 5 4 5 4 3 5 3 2 1 2 1 3 4 4 6 6 7 8 9 8 6 5 5 5 4 4 4 5 4 5 5
10 10 9 9 8 8 7 8 9 9 9 9 8 5 4 6 4 4 4 3 3 1 2 3 4 5 7 8 8 9 9 6 4 4 5 5 5 5 5 5 6 6
11 10 11 9 8 8 8 9 9 8 8 7 6 7 7 6 6 6 5 4 3 1 1 1 1 4 5 8 9 9 8 5 4 4 4 5 5 6 6 6 7 7
11 11 11 10 9 7 7 8 7 6 7 5 6 6 7 7 6 6 6 5 5 5 5 5 4 4 5 6 7 8 8 6 4 4 4 4 5 5 6 7 7 7
11 11 11 11 11 10 9 8 8 8 8 5 5 6 5 5 6 6 7 7 6 5 4 4 4 4 6 8 10 10 6 3 4 5 6 7 6 6 6 7 6 5
10 10 11 11 10 10 10 9 9 9 7 6 7 7 7 7 6 5 5 6 7 7 7 7 6 8 8 6 6 7 5 3 3 4 5 7 8 7 6 6 6 5
9 10 10 9 10 10 9 9 8 6 7 6 7 7 7 7 5 7 7 7 7 7 7 7 7 10 14 13 12 9 4 5 4 4 5 5 6 6 4 5 6 10
9 9 9 9 9 8 7 9 9 7 6 6 6 6 6 6 7 7 7 7 7 6 9 8 7 9 13 15 14 13 7 5 5 4 4 6 7 7 5 6 5 7
8 8 8 8 8 7 6 6 5 6 8 7 7 6 6 6 6 6 7 6 6 6 7 7 8 8 9 14 14 13 9 4 4 4 6 7 7 8 8 7 6 6
Wind_Direction
151 152 151 146 147 147 145 143 149 138 144 137 132 156 138 160 128 102 92 84 98 107 110 118 115 109 108 110 113 112 114 126 109 120 131 129 141 154 156 150 154 157
158 149 137 128 121 127 140 143 150 147 147 149 139 133 122 122 136 109 104 84 75 99 106 97 90 100 104 109 117 115 110 114 115 120 130 133 156 154 160 165 163 143
146 141 140 143 141 136 130 123 133 136 131 133 122 122 129 121 111 73 90 98 88 91 96 110 101 91 95 95 90 92 102 98 90 76 107 135 144 141 154 153 149 169
141 141 140 125 122 124 125 117 107 110 109 112 128 130 120 115 104 98 85 86 102 84 79 90 104 102 105 104 99 87 95 88 103 105 96 72 71 116 128 127 120 101
140 125 117 114 112 120 126 124 126 121 121 126 111 109 115 113 102 95 92 85 106 111 98 101 97 111 110 100 106 102 89 96 84 107 103 91 58 92 93 97 100 96
119 125 128 130 137 133 128 133 138 134 132 122 135 111 110 115 116 114 110 106 96 112 105 98 102 96 111 115 98 100 111 99 96 110 100 103 85 59 81 108 126 106
132 131 128 129 124 127 127 132 128 126 124 131 110 118 129 119 119 116 108 110 112 116 126 126 117 101 90 107 103 96 79 106 95 100 105 91 105 89 85 111 98 100
124 123 124 123 121 125 128 131 131 130 135 115 126 134 120 128 110 94 94 103 110 108 109 115 114 116 125 117 114 100 83 84 106 102 101 97 96 101 77 81 98 104
130 128 122 123 121 130 128 130 130 128 131 131 131 130 74 109 133 106 96 93 91 102 110 112 118 116 110 120 121 125 114 81 101 121 127 125 115 120 115 109 93 102
61 77 117 121 126 134 130 130 131 136 131 126 129 119 123 69 63 95 100 92 94 94 108 125 107 102 99 121 142 137 126 127 116 115 130 141 139 138 132 120 130 115
50 49 60 107 108 116 123 130 139 138 133 137 120 110 109 109 92 75 95 108 123 141 146 169 163 153 132 126 144 143 141 142 140 128 140 151 154 149 147 138 142 141
60 45 79 116 130 134 137 146 143 140 137 129 136 122 112 151 155 156 155 187 151 182 188 193 174 178 171 176 175 156 138 140 145 152 166 170 175 170 157 163 153 158
146 178 158 158 142 139 132 142 145 140 133 142 164 138 143 167 187 189 207 194 189 170 221 196 180 187 177 171 169 167 164 156 162 174 190 203 201 192 184 188 179 165
152 149 130 89 96 127 140 140 135 106 96 121 135 153 157 174 186 200 208 182 207 194 219 229 157 181 195 186 171 171 167 186 187 192 202 227 229 226 207 203 204 195
70 41 36 77 69 77 107 104 100 109 109 101 140 219 221 170 199 186 181 196 216 219 230 221 175 206 202 181 163 161 177 184 202 201 201 213 234 251 264 266 259 241
87 77 61 56 59 65 85 81 50 57 101 104 232 251 263 159 158 148 144 207 210 211 215 227 229 222 224 205 179 170 182 185 190 204 207 213 220 248 275 282 273 277
70 64 57 60 65 50 41 65 72 37 44 58 61 51 34 52 119 133 148 167 231 217 197 214 230 231 229 216 210 186 171 176 180 205 200 200 208 214 234 246 261 268
57 59 57 37 44 47 48 43 38 44 44 33 22 24 15 48 62 67 75 101 171 199 236 240 235 245 249 231 232 223 205 196 196 194 197 204 205 214 229 234 243 251
58 61 60 59 51 52 52 58 57 50 38 24 12 356 32 35 13 30 44 70 118 156 245 262 269 297 305 287 258 241 238 237 222 219 208 214 209 212 214 220 224 232
51 52 50 44 41 44 51 55 55 52 46 31 12 21 37 29 17 16 4 7 6 58 175 209 249 277 266 265 267 264 256 250 270 250 236 230 224 219 221 219 214 212
50 49 47 38 30 28 42 55 57 54 52 36 36 32 29 30 20 14 12 7 357 345 344 331 301 287 266 256 253 255 252 209 244 270 284 272 251 233 227 229 226 219
49 50 49 43 34 25 25 37 40 41 38 26 36 31 27 28 22 23 13 1 356 358 356 326 305 321 321 314 310 300 291 229 215 223 236 248 257 255 246 237 236 228
47 45 45 42 36 30 21 19 25 24 27 24 33 26 25 24 19 12 2 4 360 1 359 338 332 331 333 307 283 291 303 268 246 235 238 242 244 243 239 238 229 220
51 53 49 44 42 33 17 12 9 14 21 18 32 18 16 6 3 8 10 13 11 5 356 347 335 338 345 345 339 325 292 281 266 238 243 241 252 257 254 247 232 219
37 43 46 47 48 37 28 16 4 3 353 7 20 21 11 1 9 16 10 14 12 4 359 6 349 346 353 356 359 360 346 311 306 287 275 272 267 263 242 233 252 242
33 38 39 41 38 32 28 27 4 6 4 4 10 18 14 14 15 17 12 3 358 5 3 1 353 346 348 350 351 359 11 343 303 293 271 267 266 265 272 262 240 245